Location: B?dimalle
(17.1788°N, 80.5377°E)
Time: 17:12:40
(UTC+00:00)

Injun/Solrad 3 - Visible Passes

Search period start: 16 February 2026 00:00
Search period end: 26 February 2026 00:00
Orbit: 873 x 983 km, 66.8° (Epoch: 16 February)

Date Brightness Start Highest point End Pass type
(mag) Time Alt. Az. Time Alt. Az. Time Alt. Az.
20 Feb 10.2 15:22:36 10° NNW 15:23:20 14° NNW 15:23:20 14° NNW visible
21 Feb 9.5 13:49:11 10° NNE 13:51:40 17° NE 13:51:40 17° NE visible
21 Feb 10.1 15:33:53 10° NW 15:35:24 18° NW 15:35:24 18° NW visible
22 Feb 8.7 13:59:03 10° N 14:04:01 31° NE 14:04:01 31° NE visible
22 Feb 10.2 15:45:35 10° NW 15:47:46 19° WNW 15:47:46 19° WNW visible
23 Feb 8.0 14:09:30 10° N 14:15:37 52° ENE 14:16:50 46° ESE visible
23 Feb 10.5 15:58:10 10° WNW 16:00:37 15° W 16:00:37 15° W visible
24 Feb 7.9 14:20:18 10° NNW 14:26:38 88° ENE 14:30:22 27° SSE visible
25 Feb 8.6 14:31:28 10° NNW 14:37:36 55° WSW 14:43:51 10° S visible
